Time,TemperatureF,DewpointF,PressureIn,WindDirection,WindDirectionDegrees,WindSpeedMPH,WindSpeedGustMPH,Humidity,HourlyPrecipIn,Conditions,Clouds,dailyrainin,SoftwareType,DateUTC
2013-10-09 00:12:00,62.0,36.0,29.77,SW,230,0.0,1.0,38,0.00,,,0.00,,2013-10-09 06:12:00,
2013-10-09 00:22:00,61.0,36.0,29.77,SW,231,0.0,1.0,39,0.00,,,0.00,,2013-10-09 06:22:00,
2013-10-09 00:42:00,62.0,36.0,29.77,SW,231,0.0,1.0,38,0.00,,,0.00,,2013-10-09 06:42:00,
2013-10-09 00:52:00,61.0,36.0,29.77,SW,231,0.0,1.0,39,0.00,,,0.00,,2013-10-09 06:52:00,
2013-10-09 01:12:00,60.0,36.0,29.77,SW,231,0.0,1.0,40,0.00,,,0.00,,2013-10-09 07:12:00,
2013-10-09 01:22:00,61.0,36.0,29.77,SW,231,0.0,0.0,40,0.00,,,0.00,,2013-10-09 07:22:00,
2013-10-09 01:42:00,60.0,36.0,29.77,SW,231,0.0,1.0,41,0.00,,,0.00,,2013-10-09 07:42:00,
2013-10-09 01:52:00,60.0,36.0,29.77,SW,231,0.0,0.0,41,0.00,,,0.00,,2013-10-09 07:52:00,
2013-10-09 02:12:00,58.0,37.0,29.77,SW,231,0.0,0.0,45,0.00,,,0.00,,2013-10-09 08:12:00,
2013-10-09 02:23:00,56.0,36.0,29.78,SW,231,0.0,0.0,47,0.00,,,0.00,,2013-10-09 08:23:00,
2013-10-09 02:42:00,56.0,37.0,29.78,SW,231,0.0,0.0,49,0.00,,,0.00,,2013-10-09 08:42:00,
2013-10-09 02:53:00,55.0,37.0,29.78,SW,231,0.0,0.0,50,0.00,,,0.00,,2013-10-09 08:53:00,
2013-10-09 03:11:00,55.0,37.0,29.79,SW,231,0.0,0.0,50,0.00,,,0.00,,2013-10-09 09:11:00,
2013-10-09 03:22:00,55.0,37.0,29.79,SW,231,0.0,0.0,51,0.00,,,0.00,,2013-10-09 09:22:00,
2013-10-09 03:43:00,54.0,37.0,29.78,SW,231,0.0,0.0,52,0.00,,,0.00,,2013-10-09 09:43:00,
2013-10-09 03:53:00,53.0,36.0,29.78,SW,231,0.0,0.0,52,0.00,,,0.00,,2013-10-09 09:53:00,
2013-10-09 04:13:00,52.0,35.0,29.78,SW,231,0.0,0.0,53,0.00,,,0.00,,2013-10-09 10:13:00,
2013-10-09 04:23:00,51.0,37.0,29.78,SW,231,0.0,0.0,58,0.00,,,0.00,,2013-10-09 10:23:00,
2013-10-09 04:43:00,51.0,37.0,29.78,SW,231,0.0,0.0,58,0.00,,,0.00,,2013-10-09 10:43:00,
2013-10-09 04:53:00,51.0,37.0,29.78,SW,231,0.0,0.0,58,0.00,,,0.00,,2013-10-09 10:53:00,
2013-10-09 05:12:00,51.0,36.0,29.78,SW,231,0.0,0.0,56,0.00,,,0.00,,2013-10-09 11:12:00,
2013-10-09 05:22:00,50.0,36.0,29.78,SW,231,0.0,0.0,59,0.00,,,0.00,,2013-10-09 11:22:00,
2013-10-09 05:42:00,50.0,37.0,29.79,SW,231,0.0,0.0,60,0.00,,,0.00,,2013-10-09 11:42:00,
2013-10-09 05:52:00,49.0,37.0,29.79,SW,231,0.0,0.0,62,0.00,,,0.00,,2013-10-09 11:52:00,
2013-10-09 06:12:00,48.0,36.0,29.79,SW,231,0.0,0.0,63,0.00,,,0.00,,2013-10-09 12:12:00,
2013-10-09 06:22:00,48.0,36.0,29.79,SW,231,0.0,0.0,62,0.00,,,0.00,,2013-10-09 12:22:00,
2013-10-09 06:42:00,48.0,36.0,29.80,SW,231,0.0,0.0,63,0.00,,,0.00,,2013-10-09 12:42:00,
2013-10-09 06:52:00,47.0,36.0,29.80,SW,231,0.0,0.0,65,0.00,,,0.00,,2013-10-09 12:52:00,
2013-10-09 07:11:00,47.0,35.0,29.80,SW,231,0.0,0.0,64,0.00,,,0.00,,2013-10-09 13:11:00,
2013-10-09 07:22:00,47.0,35.0,29.80,SW,231,0.0,0.0,64,0.00,,,0.00,,2013-10-09 13:22:00,
2013-10-09 07:42:00,47.0,36.0,29.81,SW,231,0.0,0.0,66,0.00,,,0.00,,2013-10-09 13:42:00,
2013-10-09 07:52:00,48.0,37.0,29.81,SW,231,0.0,0.0,65,0.00,,,0.00,,2013-10-09 13:52:00,
2013-10-09 08:11:00,49.0,37.0,29.82,SW,231,0.0,0.0,64,0.00,,,0.00,,2013-10-09 14:11:00,
2013-10-09 08:22:00,51.0,38.0,29.82,SW,231,0.0,0.0,62,0.00,,,0.00,,2013-10-09 14:22:00,
2013-10-09 08:42:00,53.0,39.0,29.83,SW,231,0.0,0.0,60,0.00,,,0.00,,2013-10-09 14:42:00,
2013-10-09 08:52:00,55.0,39.0,29.83,South,179,0.0,0.0,54,0.00,,,0.00,,2013-10-09 14:52:00,
2013-10-09 09:11:00,57.0,40.0,29.83,South,179,0.0,0.0,52,0.00,,,0.00,,2013-10-09 15:11:00,
2013-10-09 09:22:00,58.0,39.0,29.84,South,179,0.0,1.0,50,0.00,,,0.00,,2013-10-09 15:22:00,
2013-10-09 09:43:00,59.0,39.0,29.84,South,179,0.0,0.0,47,0.00,,,0.00,,2013-10-09 15:43:00,
2013-10-09 09:53:00,61.0,40.0,29.84,South,179,0.0,1.0,46,0.00,,,0.00,,2013-10-09 15:53:00,
2013-10-09 10:13:00,63.0,41.0,29.84,South,180,0.0,2.0,45,0.00,,,0.00,,2013-10-09 16:13:00,
2013-10-09 10:24:00,63.0,41.0,29.84,South,180,0.0,2.0,45,0.00,,,0.00,,2013-10-09 16:24:00,
2013-10-09 10:42:00,70.0,44.0,29.84,SSW,213,1.0,6.0,39,0.00,,,0.00,,2013-10-09 16:42:00,
2013-10-09 10:53:00,72.0,44.0,29.83,SW,221,1.0,8.0,37,0.00,,,0.00,,2013-10-09 16:53:00,
2013-10-09 11:12:00,73.0,45.0,29.83,SW,232,2.0,6.0,37,0.00,,,0.00,,2013-10-09 17:12:00,
2013-10-09 11:22:00,75.0,46.0,29.82,SSW,200,0.0,7.0,36,0.00,,,0.00,,2013-10-09 17:22:00,
2013-10-09 11:42:00,76.0,46.0,29.82,SW,229,4.0,13.0,35,0.00,,,0.00,,2013-10-09 17:42:00,
2013-10-09 11:52:00,77.0,46.0,29.81,West,260,3.0,13.0,33,0.00,,,0.00,,2013-10-09 17:52:00,
2013-10-09 12:02:00,77.0,46.0,29.81,West,260,3.0,13.0,33,0.00,,,0.00,,2013-10-09 18:02:00,
2013-10-09 12:12:00,77.0,46.0,29.81,West,260,3.0,13.0,33,0.00,,,0.00,,2013-10-09 18:12:00,
2013-10-09 12:22:00,79.0,46.0,29.79,SW,233,3.0,11.0,31,0.00,,,0.00,,2013-10-09 18:22:00,
2013-10-09 12:42:00,80.0,47.0,29.78,South,190,1.0,11.0,31,0.00,,,0.00,,2013-10-09 18:42:00,
2013-10-09 12:52:00,81.0,46.0,29.78,SSW,212,3.0,10.0,29,0.00,,,0.00,,2013-10-09 18:52:00,
2013-10-09 13:11:00,81.0,44.0,29.77,South,191,4.0,8.0,27,0.00,,,0.00,,2013-10-09 19:11:00,
2013-10-09 13:22:00,81.0,44.0,29.77,SW,215,2.0,12.0,27,0.00,,,0.00,,2013-10-09 19:22:00,
2013-10-09 13:42:00,81.0,44.0,29.76,South,186,3.0,11.0,27,0.00,,,0.00,,2013-10-09 19:42:00,
2013-10-09 13:52:00,83.0,44.0,29.75,SW,221,4.0,12.0,25,0.00,,,0.00,,2013-10-09 19:52:00,
2013-10-09 14:11:00,82.0,45.0,29.75,SW,221,6.0,16.0,27,0.00,,,0.00,,2013-10-09 20:11:00,
2013-10-09 14:22:00,83.0,46.0,29.73,SSW,198,2.0,11.0,27,0.00,,,0.00,,2013-10-09 20:22:00,
2013-10-09 14:43:00,83.0,45.0,29.72,SSW,202,5.0,12.0,26,0.00,,,0.00,,2013-10-09 20:43:00,
2013-10-09 14:52:00,84.0,44.0,29.72,SSW,211,3.0,11.0,25,0.00,,,0.00,,2013-10-09 20:52:00,
2013-10-09 15:11:00,83.0,42.0,29.71,SW,218,5.0,16.0,24,0.00,,,0.00,,2013-10-09 21:11:00,
2013-10-09 15:22:00,83.0,42.0,29.71,SW,220,4.0,12.0,24,0.00,,,0.00,,2013-10-09 21:22:00,
2013-10-09 15:44:00,84.0,42.0,29.70,West,259,4.0,9.0,23,0.00,,,0.00,,2013-10-09 21:44:00,
2013-10-09 15:53:00,84.0,42.0,29.70,South,181,5.0,11.0,23,0.00,,,0.00,,2013-10-09 21:53:00,
2013-10-09 16:13:00,84.0,42.0,29.70,SW,231,6.0,13.0,23,0.00,,,0.00,,2013-10-09 22:13:00,
2013-10-09 16:24:00,84.0,43.0,29.69,WSW,252,3.0,8.0,24,0.00,,,0.00,,2013-10-09 22:24:00,
2013-10-09 16:43:00,85.0,44.0,29.68,SW,218,1.0,9.0,24,0.00,,,0.00,,2013-10-09 22:43:00,
2013-10-09 16:53:00,84.0,45.0,29.67,South,174,1.0,8.0,26,0.00,,,0.00,,2013-10-09 22:53:00,
2013-10-09 17:12:00,85.0,46.0,29.67,SE,146,1.0,6.0,26,0.00,,,0.00,,2013-10-09 23:12:00,
2013-10-09 17:22:00,84.0,44.0,29.67,SSW,204,1.0,6.0,25,0.00,,,0.00,,2013-10-09 23:22:00,
2013-10-09 17:53:00,81.0,44.0,29.67,SE,134,1.0,10.0,27,0.00,,,0.00,,2013-10-09 23:53:00,
2013-10-09 18:12:00,80.0,44.0,29.67,SSE,159,0.0,4.0,28,0.00,,,0.00,,2013-10-10 00:12:00,
2013-10-09 18:22:00,81.0,44.0,29.66,SE,140,1.0,9.0,27,0.00,,,0.00,,2013-10-10 00:22:00,
2013-10-09 18:42:00,81.0,44.0,29.67,South,180,2.0,7.0,27,0.00,,,0.00,,2013-10-10 00:42:00,
2013-10-09 18:52:00,79.0,43.0,29.66,SE,144,0.0,7.0,28,0.00,,,0.00,,2013-10-10 00:52:00,
2013-10-09 19:11:00,78.0,43.0,29.67,SSE,167,0.0,7.0,29,0.00,,,0.00,,2013-10-10 01:11:00,
2013-10-09 19:42:00,69.0,51.0,29.69,SSW,200,0.0,0.0,52,0.01,,,0.01,,2013-10-10 01:42:00,
2013-10-09 19:52:00,69.0,51.0,29.69,WNW,298,0.0,5.0,53,0.03,,,0.03,,2013-10-10 01:52:00,
2013-10-09 20:12:00,68.0,54.0,29.69,NW,316,0.0,1.0,62,0.03,,,0.03,,2013-10-10 02:12:00,
2013-10-09 20:22:00,68.0,54.0,29.69,NW,316,0.0,0.0,61,0.03,,,0.04,,2013-10-10 02:22:00,
2013-10-09 21:12:00,65.0,53.0,29.70,NW,319,0.0,0.0,64,0.01,,,0.04,,2013-10-10 03:12:00,
2013-10-09 21:22:00,66.0,52.0,29.70,NW,319,0.0,0.0,60,0.00,,,0.04,,2013-10-10 03:22:00,
2013-10-09 21:44:00,67.0,54.0,29.71,NW,319,0.0,1.0,62,0.00,,,0.04,,2013-10-10 03:44:00,
2013-10-09 21:54:00,67.0,51.0,29.71,NW,319,0.0,0.0,57,0.00,,,0.04,,2013-10-10 03:54:00,
2013-10-09 22:13:00,67.0,51.0,29.72,NW,318,0.0,1.0,56,0.00,,,0.04,,2013-10-10 04:13:00,
2013-10-09 22:24:00,67.0,51.0,29.72,NW,318,0.0,1.0,56,0.00,,,0.04,,2013-10-10 04:24:00,
2013-10-09 22:48:00,67.0,51.0,29.72,NW,318,0.0,1.0,57,0.00,,,0.04,,2013-10-10 04:48:00,
2013-10-09 23:12:00,63.0,51.0,29.72,NNW,336,0.0,1.0,66,0.02,,,0.06,,2013-10-10 05:12:00,
2013-10-09 23:22:00,64.0,50.0,29.72,North,359,0.0,1.0,61,0.02,,,0.06,,2013-10-10 05:22:00,
2013-10-09 23:43:00,64.0,51.0,29.73,North,359,0.0,1.0,63,0.01,,,0.06,,2013-10-10 05:43:00,
2013-10-09 23:52:00,64.0,49.0,29.73,North,6,0.0,0.0,58,0.00,,,0.06,,2013-10-10 05:52:00,